Kimball, NE

4:23 PM MST on December 04, 2016 (GMT -0700)
Kimball Municipal-Arraj

Weather History for KIBM - June, 2013

Change the Weather History Date:

Friday, June 7, 2013

  Actual Average (KSNY) Record (KSNY)
Temperature  
Mean Temperature 64 °F 64 °F  
Max Temperature 80 °F 78 °F 100 °F (2006)
Min Temperature 48 °F 50 °F 36 °F (1974)
Degree Days  
Heating Degree Days 1 3  
Month to date heating degree days 26  
Since 1 June heating degree days 26  
Since 1 July heating degree days 6188  
Cooling Degree Days 0 3  
Month to date cooling degree days 15  
Year to date cooling degree days 37  
Since 1 June cooling degree days 15  
Growing Degree Days 14 (Base 50)    
Moisture  
Dew Point 46 °F    
Average Humidity 54    
Maximum Humidity 88    
Minimum Humidity 25    
Precipitation  
Precipitation 0.03 in 0.11 in 1.09 in (2012)
Month to date precipitation 0.77  
Year to date precipitation 7.53  
Sea Level Pressure  
Sea Level Pressure 30.00 in    
Wind  
Wind Speed 7 mph (South)    
Max Wind Speed 17 mph    
Max Gust Speed 26 mph    
Visibility 10 miles    
Events Rain    
T = Trace of Precipitation, MM = Missing Value Source: NWS Daily Summary

Daily Weather History Graph

Daily Weather History Graph

Search for Another Location

Airport or City:

Trip Planner

Search our weather history database for the weather conditions in past years. The results will help you decide how hot, cold, wet, or windy it might be!

Date:

Astronomy

Jun. 07, 2013 Rise Set
Actual Time 6:22 AM CDT 9:25 PM CDT
Civil Twilight 5:48 AM CDT 9:58 PM CDT
Nautical Twilight 5:06 AM CDT 10:41 PM CDT
Astronomical Twilight 4:16 AM CDT 11:31 PM CDT
Moon 5:47 AM CDT (6/7) 8:40 PM CDT (6/7)
Length of Visible Light 16h 10m
Length of Day
15h 03m
Waning Crescent, 1% of the Moon is Illuminated
Jun 7
Waning Crescent
Jun 8
New
Jun 16
First Quarter
Jun 23
Full
Jun 29
Last Quarter

Hourly Weather History & Observations

Time (CDT) Temp. Dew Point Humidity Pressure Visibility Wind Dir Wind Speed Gust Speed Precip Events Conditions
12:15 AM 54.1 °F 47.1 °F 77% 30.13 in 10.0 mi SSE 6.9 mph - N/A   Clear
12:35 AM 54.5 °F 47.3 °F 77% 30.13 in 10.0 mi South 5.8 mph - N/A   Clear
12:55 AM 53.2 °F 46.9 °F 79% 30.13 in 10.0 mi South 4.6 mph - N/A   Clear
1:15 AM 53.1 °F 47.1 °F 80% 30.13 in 10.0 mi South 6.9 mph - N/A   Clear
1:35 AM 52.2 °F 46.4 °F 81% 30.13 in 10.0 mi South 6.9 mph - N/A   Clear
1:55 AM 52.9 °F 46.6 °F 79% 30.12 in 10.0 mi South 8.1 mph - N/A   Clear
2:15 AM 51.8 °F 46.6 °F 82% 30.12 in 10.0 mi South 5.8 mph - N/A   Clear
2:35 AM 52.2 °F 47.3 °F 83% 30.12 in 10.0 mi SSW 6.9 mph - N/A   Clear
2:55 AM 51.8 °F 46.8 °F 83% 30.12 in 10.0 mi SSW 5.8 mph - N/A   Clear
3:15 AM 51.6 °F 46.9 °F 84% 30.12 in 10.0 mi SW 4.6 mph - N/A   Clear
3:35 AM 51.8 °F 46.8 °F 83% 30.12 in 10.0 mi WSW 4.6 mph - N/A   Clear
4:24 AM 50.0 °F 46.4 °F 87% 30.11 in 10.0 mi WNW 4.6 mph - N/A   Clear
4:40 AM 51.8 °F 46.4 °F 82% 30.11 in 10.0 mi West 8.1 mph - N/A   Clear
4:55 AM 50.5 °F 46.6 °F 86% 30.11 in 10.0 mi West 5.8 mph - N/A   Clear
5:15 AM 51.1 °F 46.8 °F 85% 30.10 in 10.0 mi West 5.8 mph - N/A   Clear
5:35 AM 50.0 °F 46.4 °F 87% 30.10 in 10.0 mi West 6.9 mph - N/A   Clear
5:55 AM 50.0 °F 46.2 °F 87% 30.10 in 10.0 mi West 4.6 mph - N/A   Clear
6:15 AM 48.9 °F 45.5 °F 88% 30.09 in 10.0 mi West 5.8 mph - N/A   Clear
6:35 AM 49.3 °F 45.9 °F 88% 30.09 in 10.0 mi West 5.8 mph - N/A   Clear
6:55 AM 50.7 °F 46.4 °F 85% 30.08 in 10.0 mi West 4.6 mph - N/A   Clear
7:15 AM 51.8 °F 47.5 °F 85% 30.08 in 10.0 mi Calm Calm - N/A   Clear
7:35 AM 53.8 °F 47.8 °F 80% 30.08 in 10.0 mi Calm Calm - N/A   Clear
7:55 AM 55.6 °F 48.2 °F 76% 30.08 in 10.0 mi WSW 4.6 mph - N/A   Clear
8:15 AM 57.6 °F 49.3 °F 74% 30.08 in 10.0 mi WNW 3.5 mph - N/A   Clear
8:35 AM 59.2 °F 49.8 °F 71% 30.08 in 10.0 mi Calm Calm - N/A   Clear
8:55 AM 61.2 °F 50.4 °F 68% 30.07 in 10.0 mi SW 3.5 mph - N/A   Clear
9:15 AM 62.8 °F 50.7 °F 65% 30.07 in 10.0 mi Calm Calm - N/A   Clear
9:35 AM 65.8 °F 51.1 °F 59% 30.07 in 10.0 mi South 3.5 mph - N/A   Clear
9:55 AM 67.3 °F 50.0 °F 54% 30.07 in 10.0 mi South 4.6 mph - N/A   Clear
10:15 AM 68.9 °F 47.8 °F 47% 30.06 in 10.0 mi SSW 4.6 mph - N/A   Clear
10:35 AM 70.3 °F 43.2 °F 37% 30.05 in 10.0 mi South 6.9 mph - N/A   Clear
10:55 AM 71.6 °F 42.8 °F 35% 30.05 in 10.0 mi SSW 8.1 mph - N/A   Clear
11:15 AM 72.5 °F 42.3 °F 34% 30.04 in 10.0 mi SSW 6.9 mph - N/A   Scattered Clouds
11:35 AM 73.2 °F 41.9 °F 32% 30.04 in 10.0 mi SSW 9.2 mph - N/A   Mostly Cloudy
11:55 AM 73.8 °F 41.9 °F 32% 30.04 in 10.0 mi South 5.8 mph - N/A   Scattered Clouds
12:15 PM 73.6 °F 43.0 °F 33% 30.04 in 10.0 mi SW 11.5 mph - N/A   Scattered Clouds
12:35 PM 74.5 °F 42.6 °F 32% 30.03 in 10.0 mi South 6.9 mph - N/A   Clear
12:55 PM 75.0 °F 41.4 °F 30% 30.03 in 10.0 mi SSW 6.9 mph - N/A   Clear
1:15 PM 75.4 °F 41.5 °F 30% 30.01 in 10.0 mi SSW 9.2 mph - N/A   Clear
1:35 PM 75.7 °F 41.0 °F 29% 30.01 in 10.0 mi SSW 6.9 mph - N/A   Clear
1:55 PM 76.6 °F 41.2 °F 28% 30.00 in 10.0 mi South 8.1 mph - N/A   Clear
2:15 PM 76.3 °F 39.4 °F 26% 30.00 in 10.0 mi SSE 3.5 mph - N/A   Clear
2:35 PM 77.2 °F 41.4 °F 28% 29.99 in 10.0 mi SSW 9.2 mph - N/A   Clear
2:55 PM 78.3 °F 41.9 °F 27% 29.98 in 10.0 mi SE 8.1 mph - N/A   Clear
3:15 PM 78.3 °F 41.2 °F 27% 29.98 in 10.0 mi SSW 10.4 mph 26.5 mph N/A   Clear
3:35 PM 78.6 °F 41.5 °F 27% 29.97 in 10.0 mi SSE 9.2 mph 20.7 mph N/A   Clear
3:55 PM 79.3 °F 42.4 °F 27% 29.96 in 10.0 mi SSE 11.5 mph 16.1 mph N/A   Scattered Clouds
4:15 PM 79.7 °F 42.1 °F 26% 29.95 in 10.0 mi South 10.4 mph 17.3 mph N/A   Scattered Clouds
4:35 PM 80.8 °F 41.9 °F 25% 29.94 in 10.0 mi South 11.5 mph 18.4 mph N/A   Scattered Clouds
4:55 PM 80.2 °F 41.2 °F 25% 29.93 in 10.0 mi SSW 10.4 mph 18.4 mph N/A   Clear
5:15 PM 80.1 °F 41.9 °F 26% 29.91 in 10.0 mi South 11.5 mph 20.7 mph N/A   Clear
5:35 PM 77.9 °F 42.1 °F 28% 29.90 in 10.0 mi SSE 13.8 mph 19.6 mph N/A   Clear
5:55 PM 80.1 °F 43.3 °F 27% 29.89 in 10.0 mi South 12.7 mph 17.3 mph N/A   Clear
6:15 PM 79.9 °F 43.2 °F 27% 29.89 in 10.0 mi SSE 9.2 mph - N/A   Clear
6:35 PM 79.7 °F 43.2 °F 27% 29.88 in 10.0 mi SSE 17.3 mph 20.7 mph N/A   Clear
6:55 PM 79.2 °F 42.4 °F 27% 29.87 in 10.0 mi South 15.0 mph - N/A   Clear
7:15 PM 78.6 °F 43.0 °F 28% 29.86 in 10.0 mi South 12.7 mph 17.3 mph N/A   Clear
7:35 PM 75.7 °F 42.1 °F 30% 29.86 in 10.0 mi SSE 10.4 mph - N/A   Clear
7:55 PM 73.9 °F 44.2 °F 35% 29.85 in 10.0 mi SSE 6.9 mph - N/A   Clear
8:15 PM 72.7 °F 46.0 °F 39% 29.85 in 10.0 mi SSE 6.9 mph - N/A   Clear
8:35 PM 72.5 °F 46.8 °F 40% 29.85 in 10.0 mi SE 6.9 mph - N/A   Mostly Cloudy
8:55 PM 71.8 °F 46.8 °F 41% 29.85 in 10.0 mi SSE 6.9 mph - N/A   Overcast
9:15 PM 72.0 °F 46.0 °F 40% 29.85 in 10.0 mi South 6.9 mph - N/A   Mostly Cloudy
9:35 PM 66.4 °F 52.2 °F 60% 29.84 in 7.0 mi SSE 11.5 mph - 0.03 in Rain Light Rain
9:55 PM 64.6 °F 52.3 °F 64% 29.83 in 10.0 mi SSE 9.2 mph - 0.03 in   Scattered Clouds
10:15 PM 64.6 °F 51.6 °F 63% 29.83 in 10.0 mi SE 9.2 mph - N/A   Clear
10:35 PM 63.5 °F 51.3 °F 64% 29.83 in 10.0 mi SSE 9.2 mph - N/A   Clear
10:55 PM 62.8 °F 51.3 °F 66% 29.83 in 10.0 mi SSE 8.1 mph - N/A   Clear
11:15 PM 63.1 °F 50.5 °F 63% 29.82 in 10.0 mi South 10.4 mph - N/A   Mostly Cloudy
11:35 PM 62.6 °F 51.1 °F 66% 29.81 in 10.0 mi SSE 10.4 mph - N/A   Scattered Clouds
11:55 PM 63.5 °F 50.5 °F 63% 29.80 in 10.0 mi SSE 9.2 mph - N/A   Clear